Date String (YYYY-MM-DD hh:mm:ss) UTC,Instrument flags,Ambient pressure (hPa),Sample flow (lpm),Bypass flow (lpm),Sample temperature (°C),Ambient temperature (°C),ASC tube jacket temperature (°C),LED temperature (°C),Box temperature (°C),Sample RH (%),Span deviation,Mass concentration (μg/m³),Mass concentration (μg/m³),Mass concentration (μg/m³)
DateTimeUTC,F1_M11,P_M11,Q1_M11,Q2_M11,T1_M11,T2_M11,T3_M11,T4_M11,T5_M11,U1_M11,ZSPAN_M11,X0_M11,X2_M11,X1_M11
2021-12-28 20:00:00,,0809.3,5.00,0.00,21.9,23.0,00.0,30.9,24.0,06.8,0000.0,0011.96,0002.58,0000.90
2021-12-28 20:01:00,,0809.3,5.00,0.00,22.1,23.0,00.0,30.9,24.1,06.8,0000.0,0011.08,0002.46,0000.89
2021-12-28 20:02:00,,0809.3,5.00,0.00,22.1,22.7,00.0,30.9,24.0,06.8,0000.0,0010.80,0002.43,0000.89
2021-12-28 20:03:00,,0809.3,5.01,0.00,22.1,22.5,00.0,31.0,23.9,06.9,0000.0,0010.65,0002.36,0000.88
2021-12-28 20:04:00,,0809.3,4.99,0.00,22.1,22.2,00.0,31.0,23.8,06.8,0000.0,0011.17,0002.33,0000.89
2021-12-28 20:05:00,,0809.2,5.01,0.00,22.1,22.0,00.0,31.0,23.7,06.8,0000.0,0011.59,0002.34,0000.90
2021-12-28 20:06:00,,0809.3,4.99,0.00,22.0,21.9,00.0,31.0,23.6,06.8,0000.0,0011.98,0002.34,0000.88
2021-12-28 20:07:00,,0809.3,4.99,0.00,22.0,21.8,00.0,31.0,23.6,06.9,0000.0,0012.31,0002.30,0000.88
2021-12-28 20:08:00,,0809.3,5.01,0.00,22.0,21.7,00.0,31.0,23.6,06.9,0000.0,0011.97,0002.25,0000.87
2021-12-28 20:09:00,,0809.3,5.00,0.00,22.0,21.6,00.0,31.0,23.6,06.9,0000.0,0010.88,0002.24,0000.88
2021-12-28 20:10:00,,0809.2,5.00,0.00,22.0,21.5,00.0,31.0,23.6,06.9,0000.0,0010.45,0002.18,0000.88
2021-12-28 20:11:00,,0809.2,5.01,0.00,21.9,21.4,00.0,31.0,23.5,06.9,0000.0,0010.69,0002.17,0000.88
2021-12-28 20:12:00,,0809.2,4.99,0.00,21.9,21.2,00.0,31.0,23.5,06.9,0000.0,0010.74,0002.17,0000.88
2021-12-28 20:13:00,,0809.2,5.01,0.00,21.8,21.2,00.0,31.0,23.4,06.9,0000.0,0009.62,0002.12,0000.88
2021-12-28 20:14:00,,0809.2,5.01,0.00,21.8,21.0,00.0,30.9,23.3,06.8,0000.0,0009.18,0002.08,0000.87
2021-12-28 20:15:00,,0809.2,4.99,0.00,21.7,21.0,00.0,30.9,23.3,06.8,0000.0,0008.52,0002.01,0000.86
2021-12-28 20:16:00,,0809.1,5.00,0.00,21.7,20.9,00.0,30.9,23.2,06.9,0000.0,0008.03,0001.92,0000.86
2021-12-28 20:17:00,,0809.2,5.00,0.00,21.7,20.8,00.0,30.9,23.2,06.9,0000.0,0007.62,0001.92,0000.86
2021-12-28 20:18:00,,0809.2,5.00,0.00,21.6,20.9,00.0,30.9,23.2,06.9,0000.0,0006.71,0001.92,0000.87
2021-12-28 20:19:00,,0809.2,5.00,0.00,21.6,20.9,00.0,30.8,23.2,06.9,0000.0,0006.56,0001.90,0000.87
2021-12-28 20:20:00,,0809.2,5.00,0.00,21.6,21.0,00.0,30.8,23.2,06.9,0000.0,0006.92,0001.87,0000.87
2021-12-28 20:21:00,,0809.2,5.00,0.00,21.6,21.0,00.0,30.8,23.2,06.9,0000.0,0007.78,0001.83,0000.86
2021-12-28 20:22:00,,0809.2,5.00,0.00,21.6,21.0,00.0,30.8,23.2,06.9,0000.0,0007.72,0001.83,0000.86
2021-12-28 20:23:00,,0809.1,5.01,0.00,21.6,21.0,00.0,30.8,23.2,06.9,0000.0,0008.06,0001.90,0000.87
2021-12-28 20:24:00,,0809.2,5.00,0.00,21.6,21.0,00.0,30.8,23.2,07.0,0000.0,0008.04,0001.90,0000.86
2021-12-28 20:25:00,,0809.2,5.00,0.00,21.6,21.0,00.0,30.8,23.2,06.9,0000.0,0008.35,0001.98,0000.88
2021-12-28 20:26:00,,0809.2,4.99,0.00,21.6,21.0,00.0,30.7,23.2,07.0,0000.0,0009.48,0002.09,0000.88
2021-12-28 20:27:00,,0809.2,5.00,0.00,21.6,21.0,00.0,30.7,23.2,07.0,0000.0,0009.52,0002.15,0000.88
2021-12-28 20:28:00,,0809.2,5.01,0.00,21.6,21.0,00.0,30.7,23.3,06.9,0000.0,0010.52,0002.14,0000.88
2021-12-28 20:29:00,,0809.2,4.99,0.00,21.6,21.0,00.0,30.7,23.3,07.0,0000.0,0011.31,0002.13,0000.87
2021-12-28 20:30:00,,0809.2,5.01,0.00,21.6,20.9,00.0,30.7,23.2,06.9,0000.0,0011.67,0002.18,0000.87
2021-12-28 20:31:00,,0809.2,4.99,0.00,21.6,20.9,00.0,30.7,23.2,06.9,0000.0,0011.79,0002.22,0000.87
2021-12-28 20:32:00,,0809.2,5.02,0.00,21.6,20.9,00.0,30.7,23.2,06.8,0000.0,0011.76,0002.26,0000.86
2021-12-28 20:33:00,,0809.3,4.98,0.00,21.6,20.9,00.0,30.7,23.2,06.8,0000.0,0012.05,0002.28,0000.87
2021-12-28 20:34:00,,0809.2,5.00,0.00,21.6,20.9,00.0,30.7,23.2,06.8,0000.0,0012.26,0002.22,0000.86
2021-12-28 20:35:00,,0809.2,5.00,0.00,21.6,20.9,00.0,30.7,23.2,06.9,0000.0,0012.26,0002.20,0000.85
2021-12-28 20:36:00,,0809.2,5.00,0.00,21.6,20.8,00.0,30.7,23.1,06.9,0000.0,0012.04,0002.15,0000.85
2021-12-28 20:37:00,,0809.2,5.01,0.00,21.6,21.2,00.0,30.7,23.2,06.9,0000.0,0010.88,0002.03,0000.84
2021-12-28 20:38:00,,0809.3,4.99,0.00,21.7,22.1,00.0,30.7,23.6,06.9,0000.0,0010.69,0001.94,0000.81
2021-12-28 20:39:00,,0809.2,5.00,0.00,21.9,22.8,00.0,30.8,23.9,06.8,0000.0,0009.98,0001.92,0000.81
2021-12-28 20:40:00,,0809.2,5.00,0.00,22.0,22.7,00.0,30.8,24.0,06.8,0000.0,0009.34,0001.93,0000.81
2021-12-28 20:41:00,,0809.2,5.01,0.00,22.0,22.5,00.0,30.8,23.9,06.8,0000.0,0009.42,0001.89,0000.80
2021-12-28 20:42:00,,0809.2,5.01,0.00,22.0,22.3,00.0,30.9,23.8,06.8,0000.0,0010.19,0001.87,0000.80
2021-12-28 20:43:00,,0809.2,4.99,0.00,22.0,22.1,00.0,30.9,23.7,06.8,0000.0,0010.01,0001.86,0000.80
2021-12-28 20:44:00,,0809.2,5.01,0.00,22.0,21.9,00.0,30.9,23.7,06.8,0000.0,0009.69,0001.87,0000.79
2021-12-28 20:45:00,,0809.2,4.99,0.00,22.0,21.8,00.0,30.9,23.6,06.8,0000.0,0008.80,0001.84,0000.78
2021-12-28 20:46:00,,0809.2,5.00,0.00,21.9,21.6,00.0,30.9,23.6,06.8,0000.0,0008.66,0001.78,0000.78
2021-12-28 20:47:00,,0809.2,5.00,0.00,21.9,21.5,00.0,30.9,23.5,06.8,0000.0,0008.72,0001.78,0000.77
2021-12-28 20:48:00,,0809.2,5.00,0.00,21.9,21.4,00.0,30.9,23.5,06.8,0000.0,0008.88,0001.82,0000.76
2021-12-28 20:49:00,,0809.2,5.00,0.00,21.9,21.3,00.0,30.9,23.5,06.8,0000.0,0009.15,0001.88,0000.78
2021-12-28 20:50:00,,0809.3,5.00,0.00,21.9,21.2,00.0,30.9,23.5,06.8,0000.0,0009.76,0001.96,0000.77
2021-12-28 20:51:00,,0809.3,5.00,0.00,21.8,21.2,00.0,30.9,23.5,06.8,0000.0,0009.52,0001.96,0000.77
2021-12-28 20:52:00,,0809.4,5.00,0.00,21.8,21.2,00.0,30.9,23.4,06.8,0000.0,0010.24,0002.10,0000.77
2021-12-28 20:53:00,,0809.4,4.99,0.00,21.8,21.2,00.0,30.9,23.4,06.8,0000.0,0010.20,0002.16,0000.76
2021-12-28 20:54:00,,0809.4,5.01,0.00,21.8,21.2,00.0,30.9,23.4,06.8,0000.0,0010.01,0002.25,0000.75
2021-12-28 20:55:00,,0809.4,4.99,0.00,21.8,21.2,00.0,30.9,23.4,06.8,0000.0,0010.01,0002.20,0000.75
2021-12-28 20:56:00,,0809.4,5.00,0.00,21.8,21.2,00.0,30.9,23.4,06.8,0000.0,0010.52,0002.26,0000.77
2021-12-28 20:57:00,,0809.4,5.02,0.00,21.8,21.2,00.0,30.9,23.4,06.9,0000.0,0010.76,0002.36,0000.77
2021-12-28 20:58:00,,0809.4,5.00,0.00,21.8,21.2,00.0,30.9,23.5,06.9,0000.0,0010.83,0002.38,0000.77
2021-12-28 20:59:00,,0809.4,4.99,0.00,21.8,21.1,00.0,30.8,23.4,06.8,0000.0,0010.90,0002.42,0000.78
